Weather in Opalikha

Russia / Nizhny Novgorod Oblast'     56°30′56″N   44°12′51″E
temp.,
°C
wind,
m/s
gust,
m/s
humid.,
%
clouds,
%
prec.,
mm/h
press.,
hPa
HPBL,
m
24 may, tue
tue2400:00+2w2697100 0.1 1001396
03:00+1w4898100 0.9 1001541
06:00+1nw369897 0.8 1002356
09:00+4wnw357497 0.9 10031191
12:00+5nw2366100 0.4 10041195
15:00+6nw2368100 1.0 10061036
18:00+6nnw2366100 0.4 10071033
21:00+2nw2486100 0.5 100881
25 may, wed
wed2500:000nnw249480 0.0 100965
03:00−1nw259744 0.0 1010112
06:00+2nnw368919 0.0 1011273
09:00+7nw346576 0.1 10111221
12:00+7nw477691 0.6 1012944
15:00+9nw575890 1.0 10121546
18:00+8nw477259 0.4 1012977
21:00+5w369092 0.4 1013138
26 may, thu
thu2600:00+5w379286 0.1 1012203
03:00+2wsw379694 0.2 1012168
06:00+4wsw388187 0.1 1012319
09:00+9wsw476184 0.1 10101188
12:00+9wsw4668100 0.3 10101279
15:00+12w3758100 0.6 10081506
18:00+12ssw2570100 0.1 1006417
21:00+9ssw3698100 1.9 1005201
27 may, fri
fri2700:00+9sse2599100 5.3 1002167
03:00+10s4999100 9.6 1000467
06:00+10ssw4997100 3.8 997491
09:00+12w4885100 5.6 997758
12:00+14wsw698097 1.4 9981341
15:00+14wsw697994 2.4 9991311
18:00+12w611878 1.3 10011061
21:00+7wnw24935 1.4 100469
28 may, sat
sat2800:00+7sw2497100 0.0 100581
03:00+7s359768 0.0 100499
06:00+9s41291100 0.0 1003387
09:00+10sse71695100 3.6 10001005
12:00+13ssw71594100 2.8 9991298
15:00+15wsw814755 3.8 10011563
18:00+15w4115983 0.4 10031682
21:00+10sw388494 0.5 1006159